Regional Weather Roundup
Issued by NWS Grand Forks, ND

Home | Current Version | Previous Version | Graphics & Text | Print | Product List | Glossary On
Versions: 1 2 3 4 5 6 7 8 9 10 11 12 13 14 15 16 17 18 19 20 21 22 23 24 25 26 27 28 29 30 31 32 33 34 35 36 37 38 39 40 41 42 43 44 45 46 47 48 49 50
000
ASUS43 KFGF 262210
RWRFGF
PRAIRIE TO PINES  WEATHER ROUNDUP
NATIONAL WEATHER SERVICE EASTERN NORTH DAKOTA/GRAND FORKS ND
500 PM CDT FRI AUG 26 2016

 **SATELLITE DATA USED TO AUGMENT SKY COVER AT AUTOMATED STATIONS**
 *****  WEATHER ACROSS EASTERN NORTH DAKOTA  *****

CITY           SKY/WX    TMP DP  RH WIND       PRES   REMARKS
GRAND FORKS    CLOUDY    72  55  55 SW12      30.02S
GRAND FRKS AFB CLOUDY    72  54  53 SW10      30.02S
GRAND FRKS NWS   N/A     72 N/A N/A SW14        N/A
DEVILS LAKE    SUNNY     73  49  42 SW15      30.01F
FARGO          MOSUNNY   73  49  42 SW14      30.07S
WAHPETON ARPT  CLOUDY    70  45  40 S10       30.10R
$$

 ***** WEATHER ACROSS CENTRAL AND WESTERN NORTH DAKOTA  *****

CITY           SKY/WX    TMP DP  RH WIND       PRES   REMARKS
BISMARCK       SUNNY     72  51  47 S18G29    30.04F
MINOT          PTSUNNY   76  44  32 S22G28    29.94F
JAMESTOWN      CLOUDY    65  51  60 SW13      30.07F
MINOT AFB      PTSUNNY   76  47  35 S21       29.92F
GARRISON         N/A     66  54  65 S18G26    30.00S
WILLISTON      CLOUDY    76  41  28 S9        29.93F
DICKINSON      MOSUNNY   70  42  36 S17       29.98F
HETTINGER      CLOUDY    67  52  58 SE6       30.02F
$$

 *****  OTHER AIRPORT OBSERVATIONS IN OUR AREA  *****

CITY           SKY/WX    TMP DP  RH WIND       PRES   REMARKS
WALHALLA       NOT AVBL
GRAFTON AIRPOR FAIR      73  54  49 SW12G18   30.01F
VALLEY CITY AR CLOUDY    64  54  68 SW14      30.10S
CANDO          NOT AVBL
CAVALIER APRT  FAIR      75  50  41 SW9G16    29.98S
GWINNER        MOCLDY    63  59  88 SW8       30.11S
ROLLA          MOCLDY    72  46  40 SW10      29.98F
 ***** THE ABOVE OBSERVATIONS ARE NON NWS ARE NOT QUALITY
       CONTROLLED AND MAY MIS-REPORT RAIN FOR SNOW...
$$

  *****  WEATHER ACROSS NORTHERN MINNESOTA  *****

CITY           SKY/WX    TMP DP  RH WIND       PRES   REMARKS
FLAG ISLAND    MOSUNNY   72  55  56 S3        30.00F
WARROAD        MOSUNNY   73  54  49 S8        30.02F
ROSEAU         MOSUNNY   75  48  38 S12       30.02F
HALLOCK        CLOUDY    75  48  38 SW13      29.99S
THF RVR FALLS  PTSUNNY   74  47  38 SW10      30.04F
BAUDETTE       MOSUNNY   72  49  44 W5        30.04S
WASKISH        SUNNY     73  52  46 SW7       30.06F
CROOKSTON      MOSUNNY   75  48  38 SW14      30.04S
STEPHEN NDAWN    N/A     73  52  46 S10         N/A
GREENBUSH NDAW   N/A     75  50  41 S9          N/A
$$
  *****  WEATHER ACROSS CENTRAL AND WEST MINNESOTA  *****

CITY           SKY/WX    TMP DP  RH WIND       PRES   REMARKS
FOSSTON        CLOUDY    75  52  43 S12       30.07F
BEMIDJI        MOSUNNY   71  47  42 SW6       30.07F
PARK RAPIDS    MOSUNNY   75  48  38 SW9       30.10S
ELBOW LAKE     FAIR      70  54  56 S9        30.12S
WADENA         MOSUNNY   72  50  46 SW6       30.11S
DETROIT LAKES  CLOUDY    72  46  40 SW8       30.11S
MOORHEAD       MOSUNNY   72  52  49 SW7       30.08S
FERGUS FALLS   CLOUDY    72  52  49 S12       30.11S
MORRIS MN      CLOUDY    72  54  53 S5        30.12S
STAPLES        MOSUNNY   70  46  43 SW5       30.12S
$$
  *****  WEATHER ELSEWHERE ACROSS MINNESOTA  *****

CITY           SKY/WX    TMP DP  RH WIND       PRES   REMARKS
DULUTH         CLOUDY    72  52  49 S8        30.12S
INTRNTL FALLS  PTSUNNY   71  53  52 W3        30.05F
ELY            MOSUNNY   68  46  45 SW3       30.11R
CLOQUET        CLOUDY    70  52  52 S3        30.13S
WHEATON        CLOUDY    72  55  56 S6        30.13S
BRAINERD       CLOUDY    71  49  45 S6        30.12S
HIBBING        CLOUDY    70  47  43 CALM      30.11R
ALEXANDRIA     CLOUDY    71  52  50 S12       30.15S
SAINT CLOUD    CLOUDY    72  53  51 SW8       30.14S
MINNEAPOLIS    CLOUDY    71  52  50 S5        30.15S
$$

  *****  WEATHER ACROSS SOUTH DAKOTA  *****

CITY           SKY/WX    TMP DP  RH WIND       PRES   REMARKS
SIOUX FALLS    CLOUDY    73  59  61 E9        30.11F
BROOKINGS      MOSUNNY   71  52  50 SW5         N/A
WATERTOWN      CLOUDY    70  51  51 S5        30.12F
HURON          CLOUDY    67  53  61 NE7       30.11F
SISSETON         N/A     67  60  78 S5        30.10S
ABERDEEN       LGT RAIN  63  56  78 CALM      30.11F
MITCHELL       MOSUNNY   72  57  59 N7        30.10F
PIERRE         CLOUDY    62  55  77 SE9       30.06F
MOBRIDGE       LGT RAIN  59  54  83 SE12      30.05F
RAPID CITY     SUNNY     68  55  63 S13G21    30.01F
$$

  *****  SOME WEATHER IN NEARBY STATES *****

CITY           SKY/WX    TMP DP  RH WIND       PRES   REMARKS
GLASGOW MT     CLOUDY    65  49  56 W15       29.97S
GREAT FALLS MT SUNNY     70  40  33 VRB6      30.00F
CHEYENNE WY    CLOUDY    61  54  77 SE13      30.14R
SCOTTSBLUFF NE CLOUDY    68  53  58 SE15      30.06R
OMAHA NE       CLOUDY    71  61  70 SE7       30.07S
DES MOINES IA  CLOUDY    72  65  78 NE9       30.08F
DAVENPORT IA   PTSUNNY   77  63  61 E9        30.10F
CHICAGO IL     PTSUNNY   78  59  51 E9        30.12R
EAU CLAIRE WI  PTSUNNY   72  52  49 W3        30.15S
LA CROSSE WI   CLOUDY    73  58  59 W5        30.14S
$$

  *****  SOME NATIONAL WEATHER *****

CITY           SKY/WX    TMP DP  RH WIND       PRES   REMARKS
LA GUARDIA NY  MOSUNNY   91  66  43 N12       29.98R HX  93
RALEIGH NC     MOSUNNY   95  69  42 E6        30.03F HX 100
ATLANTA GA     MOSUNNY   92  67  43 E8        30.03F HX  95
NEW ORLEANS LA CLOUDY    87  75  67 SE15      29.96S HX  96
OKLAHOMA CITY  CLOUDY    86  66  51 NE14      29.97F
ALBUQUERQUE NM PTSUNNY   78  44  29 S12       30.14F
SALT LAKE CITY PTSUNNY   86  37  17 NW15      29.96F
LOS ANGELES CA MOSUNNY   72  57  59 W14       29.95F
BOISE ID       SUNNY     85  35  16 NW9       29.95F
SEATTLE WA     MOSUNNY   88  52  29 W8        29.90F
$$

*** WEATHER ACROSS MANITOBA...SASKATCHEWAN AND ONTARIO ***
                ***ONTARIO***

CITY           SKY/WX    TMP DP  RH WIND       PRES   REMARKS
GERALDTON      MOSUNNY   68  48  49 SW10      30.07S
THUNDER BAY    MOSUNNY   68  52  56 S12       30.10S
SIOUX LOOKOUT  PTSUNNY   70  52  52 SW6       30.03F
TORONTO        MOSUNNY   82  55  39 NW16      30.07R
BIG TROUT LK   MOSUNNY   70  55  60 SW3       29.88S
PICKLE LAKE    MOSUNNY   70  48  46 SW13G21   30.01S
DRYDEN         MOSUNNY   72  46  40 SW13G18   30.03F
KENORA         PTSUNNY   70  50  49 SW10      30.02F
$$
                *** MANITOBA***

CITY           SKY/WX    TMP DP  RH WIND       PRES   REMARKS
BRANDON        PTSUNNY   73  48  40 SW15G21   29.92F
DAUPHIN        SUNNY     72  54  53 SW13G20   29.86F
ISLAND LAKE    LGT RAIN  61  55  82 NW9       29.90R
PILOT MOUND      N/A     72  48  43 NW5         N/A
THE PAS        PTSUNNY   66  57  72 N5        29.82S THUNDER
THOMPSON       NOT AVBL
WINNIPEG       PTSUNNY   75  52  43 S15G22    29.93F
LYNN LAKE      SUNNY     64  37  36 MISG      29.87F
CHURCHILL      MOSUNNY   55  36  47 VRB2      29.89S
GILLAM         PTSUNNY   59  48  67 N3        29.89F
$$
                ***SASKATCHEWAN***

CITY           SKY/WX    TMP DP  RH WIND       PRES   REMARKS
ESTEVAN        LGT RAIN  70  50  49 W13G22    29.91F
KINDERSLEY     NOT AVBL
LLOYDMINSTER   PTSUNNY   66  48  52 NW3       29.90F
PRINCE ALBERT  LGT RAIN  59  57  94 NE9       29.86S
REGINA         PTSUNNY   64  52  63 NW18      29.90F
YORKTON        MOSUNNY   63  55  77 S9        29.86F
N. BATTLEFORD  MOSUNNY   68  48  49 W8        29.92F
LA RONGE       MOSUNNY   66  48  52 NE3       29.88F
SASKATOON      PTSUNNY   64  50  59 NW12      29.90F
SWIFT CURRENT  MOSUNNY   66  43  42 NW14G20   29.94F
$$
NOTE: THESE ARE AUTOMATED STATIONS WITH LIMITED QUALITY CONTROL
      "FAIR" INDICATES FEW OR NO CLOUDS BELOW 12,000 FEET WITH NO
      SIGNIFICANT WEATHER AND/OR OBSTRUCTIONS TO VISIBILITY.
      SKY/WX - SKY CONDITION AND SIGNIFICANT WEATHER.
      TMP - AIR TEMPERATURE.    DP   - DEWPOINT TEMPERATURE.
      RH  - RELATIVE HUMIDITY.  PRES - PRESSURE.
      HX  - HEAT INDEX.         WCI  - WIND CHILL INDEX.
$




USA.gov is the U.S. government's official web portal to all federal, state and local government web resources and services.